| time (UTC) | temp F | wind direction | speed MPH | gust MPH | rain 1hr in | rain 24hr in | rain mn in | humidity % | barometer mb |
| 20260509124034 | 68 | 0 | 0.0 | 0.0 | 0.00 | 0.00 | 0.00 | 90 | 1012.1 |
| 20260509123536 | 68 | 0 | 0.0 | 0.0 | 0.00 | 0.00 | 0.00 | 90 | 1012.0 |
| 20260509123054 | 68 | 0 | 0.0 | 2.0 | 0.00 | 0.00 | 0.00 | 90 | 1012.1 |
| 20260509122534 | 68 | 0 | 0.0 | 2.0 | 0.00 | 0.00 | 0.00 | 90 | 1012.1 |
| 20260509122034 | 68 | 0 | 0.0 | 2.0 | 0.00 | 0.00 | 0.00 | 90 | 1012.0 |
| 20260509121551 | 68 | 0 | 0.0 | 1.0 | 0.00 | 0.00 | 0.00 | 90 | 1012.0 |
| 20260509121032 | 68 | 0 | 0.0 | 0.0 | 0.00 | 0.00 | 0.00 | 90 | 1012.0 |
| 20260509120534 | 68 | 0 | 0.0 | 0.0 | 0.00 | 0.00 | 0.00 | 90 | 1012.0 |
| 20260509120047 | 68 | 0 | 0.0 | 0.0 | 0.00 | 0.00 | 0.00 | 90 | 1011.9 |
| 20260509115534 | 68 | 0 | 0.0 | 0.0 | 0.00 | 0.00 | 0.00 | 90 | 1011.9 |
| 20260509115034 | 68 | 0 | 0.0 | 0.0 | 0.00 | 0.00 | 0.00 | 90 | 1011.8 |
| 20260509114543 | 68 | 0 | 0.0 | 0.0 | 0.00 | 0.00 | 0.00 | 90 | 1011.8 |
| 20260509114035 | 68 | 0 | 0.0 | 0.0 | 0.00 | 0.00 | 0.00 | 90 | 1011.8 |
| 20260509113535 | 68 | 0 | 0.0 | 1.0 | 0.00 | 0.00 | 0.00 | 90 | 1011.4 |
| 20260509113047 | 68 | 0 | 0.0 | 1.0 | 0.00 | 0.00 | 0.00 | 89 | 1011.5 |
| 20260509112534 | 68 | 0 | 0.0 | 1.0 | 0.00 | 0.00 | 0.00 | 89 | 1011.5 |
| 20260509112032 | 68 | 0 | 0.0 | 1.0 | 0.00 | 0.00 | 0.00 | 89 | 1011.2 |
| 20260509111546 | 68 | 0 | 0.0 | 1.0 | 0.00 | 0.00 | 0.00 | 89 | 1011.0 |
| 20260509111034 | 69 | 0 | 0.0 | 0.0 | 0.00 | 0.00 | 0.00 | 89 | 1011.1 |
| 20260509110535 | 69 | 0 | 0.0 | 0.0 | 0.00 | 0.00 | 0.00 | 89 | 1011.1 |
| 20260509110050 | 69 | 0 | 0.0 | 0.0 | 0.00 | 0.00 | 0.00 | 89 | 1010.9 |
| 20260509105532 | 69 | 0 | 0.0 | 0.0 | 0.00 | 0.01 | 0.00 | 88 | 1010.9 |
| 20260509105035 | 69 | 0 | 0.0 | 0.0 | 0.00 | 0.01 | 0.00 | 88 | 1010.6 |
| 20260509104546 | 69 | 0 | 0.0 | 0.0 | 0.00 | 0.01 | 0.00 | 88 | 1010.4 |
| 20260509104034 | 69 | 0 | 0.0 | 0.0 | 0.00 | 0.01 | 0.00 | 88 | 1010.1 |
| 20260509103534 | 69 | 0 | 0.0 | 0.0 | 0.00 | 0.01 | 0.00 | 88 | 1010.1 |
| 20260509103052 | 69 | 0 | 0.0 | 0.0 | 0.00 | 0.01 | 0.00 | 88 | 1010.0 |
| 20260509102535 | 69 | 0 | 0.0 | 0.0 | 0.00 | 0.01 | 0.00 | 88 | 1010.0 |
| 20260509102035 | 70 | 0 | 0.0 | 0.0 | 0.00 | 0.01 | 0.00 | 88 | 1010.0 |
| 20260509101550 | 70 | 0 | 0.0 | 0.0 | 0.00 | 0.01 | 0.00 | 88 | 1009.9 |
| 20260509101034 | 70 | 0 | 0.0 | 0.0 | 0.00 | 0.01 | 0.00 | 88 | 1010.0 |
| 20260509100534 | 70 | 0 | 0.0 | 0.0 | 0.00 | 0.01 | 0.00 | 88 | 1010.0 |
| 20260509100049 | 70 | 0 | 0.0 | 0.0 | 0.00 | 0.01 | 0.00 | 88 | 1010.0 |
| 20260509095534 | 70 | 0 | 0.0 | 0.0 | 0.00 | 0.01 | 0.00 | 88 | 1009.8 |
| 20260509095031 | 70 | 0 | 0.0 | 0.0 | 0.00 | 0.01 | 0.00 | 88 | 1009.7 |
| 20260509094557 | 70 | 0 | 0.0 | 0.0 | 0.00 | 0.01 | 0.00 | 87 | 1009.7 |
| 20260509094035 | 70 | 0 | 0.0 | 0.0 | 0.00 | 0.01 | 0.00 | 87 | 1009.7 |
| 20260509093535 | 70 | 0 | 0.0 | 0.0 | 0.00 | 0.01 | 0.00 | 87 | 1009.6 |
| 20260509093044 | 70 | 0 | 0.0 | 0.0 | 0.00 | 0.01 | 0.00 | 87 | 1009.3 |
| 20260509092536 | 70 | 0 | 0.0 | 0.0 | 0.00 | 0.01 | 0.00 | 87 | 1009.3 |
| 20260509092034 | 70 | 0 | 0.0 | 0.0 | 0.00 | 0.01 | 0.00 | 87 | 1009.2 |
| 20260509091550 | 70 | 0 | 0.0 | 0.0 | 0.00 | 0.01 | 0.00 | 86 | 1009.3 |
| 20260509091036 | 70 | 0 | 0.0 | 0.0 | 0.00 | 0.01 | 0.00 | 86 | 1009.5 |
| 20260509090535 | 70 | 0 | 0.0 | 0.0 | 0.00 | 0.01 | 0.00 | 86 | 1009.5 |
| 20260509090101 | 70 | 0 | 0.0 | 0.0 | 0.00 | 0.01 | 0.00 | 86 | 1009.6 |
| 20260509085538 | 70 | 0 | 0.0 | 0.0 | 0.00 | 0.01 | 0.00 | 86 | 1009.3 |
| 20260509085037 | 70 | 0 | 0.0 | 0.0 | 0.00 | 0.01 | 0.00 | 86 | 1009.3 |
| 20260509084553 | 70 | 0 | 0.0 | 0.0 | 0.00 | 0.01 | 0.00 | 86 | 1009.3 |
| 20260509084034 | 70 | 0 | 0.0 | 0.0 | 0.00 | 0.01 | 0.00 | 86 | 1009.1 |
| 20260509083531 | 70 | 0 | 0.0 | 0.0 | 0.00 | 0.01 | 0.00 | 87 | 1009.1 |
| 20260509083106 | 70 | 0 | 0.0 | 0.0 | 0.00 | 0.01 | 0.00 | 87 | 1008.7 |
| 20260509082536 | 70 | 0 | 0.0 | 0.0 | 0.00 | 0.01 | 0.00 | 87 | 1007.9 |
| 20260509082035 | 70 | 0 | 0.0 | 1.0 | 0.00 | 0.01 | 0.00 | 88 | 1007.7 |
| 20260509081548 | 70 | 0 | 0.0 | 4.0 | 0.00 | 0.01 | 0.00 | 88 | 1007.7 |
| 20260509081035 | 70 | 0 | 0.0 | 4.0 | 0.00 | 0.01 | 0.00 | 88 | 1007.8 |
| 20260509080535 | 70 | 121 | 0.0 | 8.0 | 0.00 | 0.01 | 0.00 | 88 | 1007.8 |
| 20260509080048 | 70 | 0 | 0.0 | 8.0 | 0.00 | 0.01 | 0.00 | 88 | 1008.3 |
| 20260509075532 | 70 | 0 | 0.0 | 2.0 | 0.00 | 0.01 | 0.00 | 88 | 1008.5 |
| 20260509075035 | 70 | 109 | 0.0 | 2.0 | 0.00 | 0.01 | 0.00 | 88 | 1008.6 |
| 20260509074606 | 70 | 0 | 0.0 | 1.0 | 0.00 | 0.01 | 0.00 | 88 | 1009.2 |
| 20260509074038 | 70 | 0 | 0.0 | 0.0 | 0.00 | 0.01 | 0.00 | 88 | 1009.4 |
| 20260509073536 | 70 | 0 | 0.0 | 0.0 | 0.00 | 0.01 | 0.00 | 88 | 1009.7 |
| 20260509073101 | 70 | 0 | 0.0 | 0.0 | 0.00 | 0.01 | 0.00 | 88 | 1009.9 |
| 20260509072535 | 70 | 0 | 0.0 | 0.0 | 0.00 | 0.01 | 0.00 | 88 | 1010.4 |
| 20260509072035 | 70 | 0 | 0.0 | 0.0 | 0.00 | 0.01 | 0.00 | 88 | 1010.1 |
| 20260509071555 | 69 | 0 | 0.0 | 0.0 | 0.00 | 0.01 | 0.00 | 88 | 1010.2 |
| 20260509071036 | 69 | 0 | 0.0 | 0.0 | 0.00 | 0.01 | 0.00 | 88 | 1010.4 |
| 20260509070535 | 69 | 0 | 0.0 | 0.0 | 0.00 | 0.01 | 0.00 | 88 | 1010.6 |
| 20260509070048 | 69 | 0 | 0.0 | 0.0 | 0.00 | 0.01 | 0.00 | 88 | 1010.9 |
| 20260509065534 | 69 | 0 | 0.0 | 0.0 | 0.00 | 0.01 | 0.00 | 88 | 1011.1 |
| 20260509065034 | 69 | 0 | 0.0 | 0.0 | 0.00 | 0.01 | 0.00 | 88 | 1011.0 |
| 20260509064543 | 69 | 0 | 0.0 | 0.0 | 0.00 | 0.01 | 0.00 | 87 | 1011.1 |
| 20260509064035 | 69 | 0 | 0.0 | 0.0 | 0.00 | 0.01 | 0.00 | 87 | 1011.3 |
| 20260509063535 | 69 | 0 | 0.0 | 0.0 | 0.00 | 0.01 | 0.00 | 87 | 1011.6 |
| 20260509063056 | 69 | 0 | 0.0 | 0.0 | 0.00 | 0.01 | 0.00 | 87 | 1011.9 |
| 20260509062534 | 69 | 0 | 0.0 | 0.0 | 0.00 | 0.01 | 0.00 | 86 | 1012.0 |
| 20260509062034 | 69 | 0 | 0.0 | 0.0 | 0.00 | 0.01 | 0.00 | 86 | 1012.1 |
| 20260509061544 | 69 | 0 | 0.0 | 0.0 | 0.00 | 0.01 | 0.00 | 86 | 1012.0 |
| 20260509061034 | 69 | 0 | 0.0 | 0.0 | 0.00 | 0.01 | 0.00 | 86 | 1011.9 |
| 20260509060535 | 69 | 0 | 0.0 | 0.0 | 0.00 | 0.01 | 0.00 | 85 | 1011.7 |
| 20260509060104 | 69 | 0 | 0.0 | 0.0 | 0.00 | 0.01 | 0.00 | 85 | 1011.9 |
| 20260509055534 | 69 | 0 | 0.0 | 0.0 | 0.00 | 0.01 | 0.00 | 85 | 1011.7 |
| 20260509055034 | 70 | 0 | 0.0 | 0.0 | 0.00 | 0.01 | 0.00 | 84 | 1011.8 |
| 20260509054545 | 70 | 0 | 0.0 | 0.0 | 0.00 | 0.01 | 0.00 | 84 | 1011.7 |
| 20260509054035 | 70 | 0 | 0.0 | 0.0 | 0.00 | 0.01 | 0.00 | 84 | 1011.7 |
| 20260509053536 | 70 | 0 | 0.0 | 0.0 | 0.00 | 0.01 | 0.00 | 84 | 1012.1 |
| 20260509053054 | 71 | 0 | 0.0 | 0.0 | 0.00 | 0.01 | 0.00 | 83 | 1011.7 |
| 20260509052536 | 71 | 0 | 0.0 | 0.0 | 0.00 | 0.01 | 0.00 | 83 | 1011.9 |
| 20260509052034 | 71 | 0 | 0.0 | 0.0 | 0.00 | 0.01 | 0.00 | 83 | 1012.1 |
| 20260509051547 | 71 | 0 | 0.0 | 0.0 | 0.00 | 0.01 | 0.00 | 83 | 1012.5 |
| 20260509051120 | 71 | 0 | 0.0 | 0.0 | 0.00 | 0.01 | 0.00 | 83 | 1012.7 |
| 20260509051034 | 71 | 0 | 0.0 | 0.0 | 0.00 | 0.01 | 0.00 | 83 | 1012.7 |
| 20260509050537 | 71 | 0 | 0.0 | 0.0 | 0.00 | 0.01 | 0.00 | 83 | 1012.6 |
| 20260509050046 | 71 | 0 | 0.0 | 0.0 | 0.00 | 0.01 | 0.00 | 83 | 1013.1 |
| 20260509045531 | 71 | 0 | 0.0 | 3.0 | 0.00 | 0.01 | 0.01 | 83 | 1013.2 |
| 20260509045034 | 71 | 0 | 0.0 | 3.0 | 0.00 | 0.01 | 0.01 | 83 | 1013.3 |
| 20260509044547 | 71 | 322 | 0.0 | 1.0 | 0.00 | 0.01 | 0.01 | 83 | 1013.3 |
| 20260509044035 | 71 | 0 | 0.0 | 0.0 | 0.00 | 0.01 | 0.01 | 83 | 1012.7 |
| 20260509043534 | 71 | 0 | 0.0 | 0.0 | 0.00 | 0.01 | 0.01 | 82 | 1011.7 |
| 20260509043053 | 71 | 0 | 0.0 | 0.0 | 0.00 | 0.01 | 0.01 | 82 | 1011.6 |
| 20260509042535 | 72 | 0 | 0.0 | 0.0 | 0.00 | 0.01 | 0.01 | 82 | 1011.7 |
| 20260509042035 | 72 | 0 | 0.0 | 0.0 | 0.00 | 0.01 | 0.01 | 82 | 1011.8 |
| 20260509041551 | 72 | 0 | 0.0 | 0.0 | 0.00 | 0.01 | 0.01 | 82 | 1011.8 |
| 20260509041035 | 72 | 0 | 0.0 | 0.0 | 0.00 | 0.01 | 0.01 | 82 | 1011.8 |
| 20260509040534 | 72 | 0 | 0.0 | 0.0 | 0.00 | 0.01 | 0.01 | 82 | 1011.7 |
| 20260509040104 | 72 | 0 | 0.0 | 0.0 | 0.00 | 0.01 | 0.01 | 82 | 1011.4 |
| 20260509035534 | 72 | 0 | 0.0 | 0.0 | 0.00 | 0.01 | 0.01 | 82 | 1011.0 |
| 20260509035037 | 72 | 0 | 0.0 | 0.0 | 0.00 | 0.01 | 0.01 | 82 | 1010.9 |
| 20260509034542 | 72 | 0 | 0.0 | 0.0 | 0.00 | 0.01 | 0.01 | 81 | 1010.6 |
| 20260509034034 | 72 | 0 | 0.0 | 0.0 | 0.00 | 0.01 | 0.01 | 81 | 1010.8 |
| 20260509033534 | 72 | 0 | 0.0 | 0.0 | 0.00 | 0.01 | 0.01 | 81 | 1010.6 |
| 20260509033108 | 72 | 0 | 0.0 | 0.0 | 0.00 | 0.01 | 0.01 | 81 | 1010.6 |
| 20260509032534 | 72 | 0 | 0.0 | 0.0 | 0.00 | 0.01 | 0.01 | 81 | 1010.8 |
| 20260509032035 | 72 | 0 | 0.0 | 0.0 | 0.00 | 0.01 | 0.01 | 81 | 1011.1 |
| 20260509031551 | 72 | 0 | 0.0 | 0.0 | 0.00 | 0.01 | 0.01 | 81 | 1011.5 |
| 20260509031035 | 72 | 0 | 0.0 | 0.0 | 0.00 | 0.01 | 0.01 | 81 | 1012.1 |
| 20260509030537 | 72 | 0 | 0.0 | 0.0 | 0.00 | 0.01 | 0.01 | 81 | 1012.2 |
| 20260509030047 | 72 | 0 | 0.0 | 0.0 | 0.00 | 0.01 | 0.01 | 81 | 1012.0 |
| 20260509025535 | 72 | 0 | 0.0 | 0.0 | 0.00 | 0.01 | 0.01 | 82 | 1011.6 |
| 20260509025033 | 72 | 0 | 0.0 | 0.0 | 0.00 | 0.01 | 0.01 | 82 | 1011.3 |
| 20260509024552 | 72 | 0 | 0.0 | 0.0 | 0.00 | 0.01 | 0.01 | 81 | 1011.1 |
| 20260509024034 | 72 | 0 | 0.0 | 0.0 | 0.00 | 0.01 | 0.01 | 81 | 1010.8 |
| 20260509023534 | 72 | 0 | 0.0 | 0.0 | 0.00 | 0.01 | 0.01 | 81 | 1010.6 |
| 20260509023047 | 72 | 0 | 0.0 | 0.0 | 0.00 | 0.01 | 0.01 | 81 | 1010.5 |
| 20260509022534 | 72 | 0 | 0.0 | 0.0 | 0.00 | 0.01 | 0.01 | 81 | 1010.3 |
| 20260509022035 | 72 | 0 | 0.0 | 0.0 | 0.00 | 0.01 | 0.01 | 81 | 1010.1 |
| 20260509021547 | 72 | 0 | 0.0 | 0.0 | 0.00 | 0.01 | 0.01 | 81 | 1010.0 |
| 20260509021034 | 72 | 0 | 0.0 | 0.0 | 0.00 | 0.01 | 0.01 | 80 | 1009.9 |
| 20260509020534 | 72 | 0 | 0.0 | 0.0 | 0.00 | 0.01 | 0.01 | 80 | 1009.7 |
| 20260509020052 | 72 | 0 | 0.0 | 0.0 | 0.00 | 0.01 | 0.01 | 80 | 1009.5 |
| 20260509015535 | 72 | 0 | 0.0 | 0.0 | 0.00 | 0.01 | 0.01 | 79 | 1009.6 |
| 20260509015035 | 72 | 0 | 0.0 | 0.0 | 0.00 | 0.01 | 0.01 | 79 | 1009.8 |
| 20260509014547 | 72 | 0 | 0.0 | 0.0 | 0.00 | 0.01 | 0.01 | 79 | 1009.8 |
| 20260509014034 | 73 | 0 | 0.0 | 0.0 | 0.00 | 0.01 | 0.01 | 78 | 1009.6 |
| 20260509013534 | 73 | 0 | 0.0 | 0.0 | 0.00 | 0.01 | 0.01 | 77 | 1009.6 |
| 20260509013045 | 73 | 0 | 0.0 | 1.0 | 0.00 | 0.01 | 0.01 | 77 | 1009.6 |
| 20260509012537 | 73 | 0 | 0.0 | 1.0 | 0.00 | 0.01 | 0.01 | 77 | 1009.8 |
| 20260509012036 | 73 | 0 | 0.0 | 0.0 | 0.00 | 0.01 | 0.01 | 76 | 1009.9 |
| 20260509011551 | 74 | 0 | 0.0 | 5.0 | 0.00 | 0.01 | 0.01 | 76 | 1010.1 |
| 20260509011035 | 74 | 0 | 0.0 | 5.0 | 0.00 | 0.01 | 0.01 | 76 | 1010.2 |
| 20260509010538 | 74 | 0 | 0.0 | 0.0 | 0.00 | 0.01 | 0.01 | 75 | 1010.2 |
| 20260509010046 | 74 | 0 | 0.0 | 0.0 | 0.00 | 0.01 | 0.01 | 75 | 1010.1 |
| 20260509005535 | 74 | 0 | 0.0 | 0.0 | 0.00 | 0.01 | 0.01 | 74 | 1010.1 |
| 20260509005034 | 74 | 0 | 0.0 | 1.0 | 0.00 | 0.01 | 0.01 | 74 | 1010.0 |
| 20260509004543 | 75 | 0 | 0.0 | 1.0 | 0.00 | 0.01 | 0.01 | 74 | 1009.9 |
| 20260509004036 | 75 | 0 | 0.0 | 0.0 | 0.00 | 0.01 | 0.01 | 74 | 1009.8 |
| 20260509003535 | 75 | 0 | 0.0 | 0.0 | 0.00 | 0.01 | 0.01 | 73 | 1009.6 |
| 20260509003055 | 75 | 0 | 0.0 | 0.0 | 0.00 | 0.01 | 0.01 | 73 | 1009.6 |
| 20260509002536 | 75 | 0 | 0.0 | 2.0 | 0.00 | 0.01 | 0.01 | 73 | 1009.4 |
| 20260509002034 | 76 | 0 | 0.0 | 2.0 | 0.00 | 0.01 | 0.01 | 72 | 1009.3 |
| 20260509001547 | 76 | 0 | 0.0 | 5.0 | 0.00 | 0.01 | 0.01 | 72 | 1009.3 |
| 20260509001034 | 76 | 0 | 0.0 | 5.0 | 0.00 | 0.01 | 0.01 | 72 | 1009.2 |
| 20260509000535 | 76 | 0 | 0.0 | 5.0 | 0.00 | 0.01 | 0.01 | 72 | 1009.3 |
| 20260509000047 | 76 | 0 | 0.0 | 3.0 | 0.00 | 0.01 | 0.01 | 71 | 1009.4 |
| 20260508235532 | 76 | 0 | 0.0 | 1.0 | 0.00 | 0.01 | 0.01 | 71 | 1009.4 |
| 20260508235035 | 76 | 0 | 0.0 | 1.0 | 0.00 | 0.01 | 0.01 | 70 | 1009.5 |
| 20260508234545 | 77 | 140 | 0.0 | 2.0 | 0.00 | 0.01 | 0.01 | 70 | 1009.6 |
| 20260508234035 | 77 | 0 | 0.0 | 2.0 | 0.00 | 0.01 | 0.01 | 70 | 1009.6 |
| 20260508233536 | 77 | 0 | 0.0 | 0.0 | 0.00 | 0.01 | 0.01 | 70 | 1009.7 |
| 20260508233104 | 77 | 0 | 0.0 | 1.0 | 0.00 | 0.01 | 0.01 | 69 | 1009.8 |
| 20260508232534 | 78 | 0 | 0.0 | 1.0 | 0.00 | 0.01 | 0.01 | 69 | 1009.8 |
| 20260508232034 | 78 | 0 | 0.0 | 1.0 | 0.00 | 0.01 | 0.01 | 68 | 1009.8 |
| 20260508231553 | 78 | 0 | 0.0 | 0.0 | 0.00 | 0.01 | 0.01 | 68 | 1009.7 |
| 20260508231036 | 78 | 0 | 0.0 | 0.0 | 0.00 | 0.01 | 0.01 | 67 | 1009.6 |
| 20260508230534 | 78 | 0 | 0.0 | 1.0 | 0.00 | 0.01 | 0.01 | 67 | 1009.6 |
| 20260508230053 | 78 | 0 | 0.0 | 1.0 | 0.00 | 0.01 | 0.01 | 67 | 1009.7 |
| 20260508225534 | 78 | 0 | 0.0 | 1.0 | 0.00 | 0.01 | 0.01 | 67 | 1009.6 |
| 20260508225035 | 79 | 0 | 0.0 | 0.0 | 0.00 | 0.01 | 0.01 | 66 | 1009.6 |
| 20260508224553 | 79 | 0 | 0.0 | 0.0 | 0.00 | 0.01 | 0.01 | 67 | 1009.6 |
| 20260508224035 | 79 | 0 | 0.0 | 0.0 | 0.00 | 0.01 | 0.01 | 66 | 1009.8 |
| 20260508223535 | 79 | 0 | 0.0 | 0.0 | 0.00 | 0.01 | 0.01 | 66 | 1009.8 |
| 20260508223046 | 79 | 0 | 0.0 | 0.0 | 0.00 | 0.01 | 0.01 | 65 | 1009.8 |
| 20260508222534 | 79 | 0 | 0.0 | 0.0 | 0.00 | 0.01 | 0.01 | 64 | 1009.8 |
| 20260508222034 | 80 | 0 | 0.0 | 0.0 | 0.00 | 0.01 | 0.01 | 65 | 1009.7 |
| 20260508221545 | 80 | 0 | 0.0 | 0.0 | 0.00 | 0.01 | 0.01 | 64 | 1009.8 |
| 20260508221036 | 79 | 0 | 0.0 | 0.0 | 0.00 | 0.01 | 0.01 | 65 | 1009.8 |
| 20260508220537 | 79 | 0 | 0.0 | 0.0 | 0.00 | 0.01 | 0.01 | 65 | 1009.8 |
| 20260508220052 | 80 | 0 | 0.0 | 0.0 | 0.00 | 0.01 | 0.01 | 65 | 1009.8 |
| 20260508215534 | 80 | 0 | 0.0 | 0.0 | 0.00 | 0.01 | 0.01 | 64 | 1009.8 |
| 20260508215032 | 80 | 0 | 0.0 | 0.0 | 0.00 | 0.01 | 0.01 | 65 | 1009.8 |
| 20260508214547 | 80 | 0 | 0.0 | 0.0 | 0.00 | 0.01 | 0.01 | 64 | 1009.8 |
| 20260508214036 | 79 | 0 | 0.0 | 0.0 | 0.00 | 0.01 | 0.01 | 66 | 1009.9 |
| 20260508213534 | 79 | 0 | 0.0 | 1.0 | 0.00 | 0.01 | 0.01 | 64 | 1009.9 |
| 20260508213051 | 79 | 0 | 0.0 | 1.0 | 0.00 | 0.01 | 0.01 | 64 | 1009.9 |
| 20260508212535 | 80 | 0 | 0.0 | 1.0 | 0.00 | 0.01 | 0.01 | 65 | 1010.1 |
| 20260508212034 | 79 | 0 | 0.0 | 1.0 | 0.00 | 0.01 | 0.01 | 64 | 1010.1 |
| 20260508211545 | 79 | 0 | 0.0 | 1.0 | 0.00 | 0.01 | 0.01 | 64 | 1010.1 |
| 20260508211035 | 79 | 0 | 0.0 | 2.0 | 0.00 | 0.01 | 0.01 | 65 | 1010.1 |
| 20260508210535 | 79 | 0 | 0.0 | 2.0 | 0.00 | 0.01 | 0.01 | 64 | 1010.0 |
| 20260508210046 | 79 | 0 | 0.0 | 2.0 | 0.00 | 0.01 | 0.01 | 65 | 1010.1 |
| 20260508205534 | 78 | 0 | 0.0 | 2.0 | 0.00 | 0.01 | 0.01 | 66 | 1010.1 |
| 20260508205034 | 78 | 0 | 0.0 | 2.0 | 0.00 | 0.01 | 0.01 | 66 | 1010.3 |
| 20260508204554 | 78 | 0 | 0.0 | 2.0 | 0.00 | 0.01 | 0.01 | 66 | 1010.5 |
| 20260508204034 | 77 | 0 | 0.0 | 2.0 | 0.00 | 0.01 | 0.01 | 67 | 1010.6 |
| 20260508203534 | 77 | 0 | 0.0 | 1.0 | 0.00 | 0.01 | 0.01 | 68 | 1011.1 |
| 20260508203051 | 77 | 0 | 0.0 | 1.0 | 0.00 | 0.01 | 0.01 | 68 | 1011.4 |
| 20260508202536 | 77 | 0 | 0.0 | 2.0 | 0.00 | 0.01 | 0.01 | 69 | 1011.7 |
| 20260508202035 | 77 | 0 | 0.0 | 2.0 | 0.00 | 0.01 | 0.01 | 69 | 1011.7 |
| 20260508201547 | 77 | 0 | 0.0 | 3.0 | 0.00 | 0.01 | 0.01 | 67 | 1011.8 |
| 20260508201035 | 78 | 0 | 0.0 | 3.0 | 0.00 | 0.01 | 0.01 | 66 | 1011.9 |
| 20260508200535 | 78 | 0 | 0.0 | 3.0 | 0.00 | 0.01 | 0.01 | 66 | 1011.9 |
| 20260508200046 | 78 | 0 | 0.0 | 3.0 | 0.00 | 0.01 | 0.01 | 65 | 1011.8 |
| 20260508195534 | 79 | 0 | 0.0 | 3.0 | 0.00 | 0.01 | 0.01 | 66 | 1011.9 |
| 20260508195034 | 79 | 0 | 0.0 | 6.0 | 0.00 | 0.01 | 0.01 | 65 | 1011.9 |
| 20260508194600 | 79 | 0 | 0.0 | 6.0 | 0.00 | 0.01 | 0.01 | 65 | 1011.9 |
| 20260508194034 | 79 | 0 | 0.0 | 3.0 | 0.00 | 0.01 | 0.01 | 65 | 1012.0 |
| 20260508193534 | 78 | 0 | 0.0 | 3.0 | 0.00 | 0.01 | 0.01 | 67 | 1011.9 |
| 20260508193056 | 78 | 0 | 0.0 | 3.0 | 0.00 | 0.01 | 0.01 | 66 | 1011.9 |
| 20260508192532 | 79 | 0 | 0.0 | 5.0 | 0.00 | 0.01 | 0.01 | 65 | 1011.9 |
| 20260508192031 | 79 | 0 | 0.0 | 5.0 | 0.00 | 0.01 | 0.01 | 65 | 1012.0 |
| 20260508191550 | 79 | 0 | 0.0 | 1.0 | 0.00 | 0.01 | 0.01 | 67 | 1012.0 |
| 20260508191035 | 79 | 0 | 0.0 | 1.0 | 0.00 | 0.01 | 0.01 | 65 | 1012.1 |
| 20260508190532 | 79 | 0 | 0.0 | 1.0 | 0.00 | 0.01 | 0.01 | 64 | 1012.1 |
| 20260508190107 | 80 | 0 | 0.0 | 2.0 | 0.00 | 0.01 | 0.01 | 64 | 1012.2 |
| 20260508185535 | 80 | 0 | 0.0 | 2.0 | 0.00 | 0.01 | 0.01 | 65 | 1012.2 |
| 20260508185034 | 79 | 0 | 0.0 | 1.0 | 0.00 | 0.01 | 0.01 | 66 | 1012.3 |
| 20260508184555 | 79 | 0 | 0.0 | 5.0 | 0.00 | 0.01 | 0.01 | 64 | 1012.3 |
| 20260508184034 | 78 | 0 | 0.0 | 5.0 | 0.00 | 0.01 | 0.01 | 65 | 1012.2 |
| 20260508183534 | 79 | 0 | 0.0 | 1.0 | 0.00 | 0.01 | 0.01 | 65 | 1012.4 |
| 20260508183045 | 78 | 0 | 0.0 | 1.0 | 0.00 | 0.01 | 0.01 | 65 | 1012.5 |
| 20260508182535 | 79 | 0 | 0.0 | 2.0 | 0.00 | 0.01 | 0.01 | 65 | 1012.4 |
| 20260508182034 | 78 | 0 | 0.0 | 2.0 | 0.00 | 0.01 | 0.01 | 65 | 1012.7 |
| 20260508181558 | 78 | 0 | 0.0 | 1.0 | 0.00 | 0.01 | 0.01 | 66 | 1012.9 |
| 20260508181034 | 78 | 0 | 0.0 | 1.0 | 0.00 | 0.01 | 0.01 | 66 | 1013.0 |
| 20260508180536 | 79 | 0 | 0.0 | 1.0 | 0.00 | 0.01 | 0.01 | 66 | 1013.0 |
| 20260508180046 | 77 | 0 | 0.0 | 2.0 | 0.00 | 0.01 | 0.01 | 68 | 1013.2 |
| 20260508175534 | 77 | 0 | 0.0 | 2.0 | 0.00 | 0.01 | 0.01 | 64 | 1013.2 |
| 20260508175035 | 77 | 0 | 0.0 | 2.0 | 0.00 | 0.01 | 0.01 | 67 | 1013.4 |
| 20260508174548 | 77 | 0 | 0.0 | 3.0 | 0.00 | 0.01 | 0.01 | 67 | 1013.5 |
| 20260508174035 | 76 | 0 | 0.0 | 3.0 | 0.00 | 0.01 | 0.01 | 68 | 1013.6 |
| 20260508173534 | 76 | 0 | 0.0 | 1.0 | 0.00 | 0.01 | 0.01 | 69 | 1013.7 |
| 20260508173048 | 75 | 0 | 0.0 | 1.0 | 0.00 | 0.01 | 0.01 | 68 | 1013.6 |
| 20260508172535 | 75 | 0 | 0.0 | 1.0 | 0.00 | 0.01 | 0.01 | 68 | 1013.5 |
| 20260508172035 | 75 | 0 | 0.0 | 1.0 | 0.00 | 0.01 | 0.01 | 68 | 1013.6 |
| 20260508171549 | 75 | 0 | 0.0 | 1.0 | 0.00 | 0.01 | 0.01 | 68 | 1013.7 |
| 20260508171034 | 75 | 95 | 0.0 | 1.0 | 0.00 | 0.01 | 0.01 | 68 | 1013.8 |
| 20260508170534 | 75 | 0 | 0.0 | 2.0 | 0.00 | 0.01 | 0.01 | 69 | 1013.9 |
| 20260508170044 | 74 | 0 | 0.0 | 2.0 | 0.00 | 0.01 | 0.01 | 67 | 1014.0 |
| 20260508165535 | 74 | 0 | 0.0 | 2.0 | 0.00 | 0.01 | 0.01 | 69 | 1014.0 |
| 20260508165035 | 74 | 0 | 0.0 | 0.0 | 0.00 | 0.01 | 0.01 | 72 | 1014.2 |
| 20260508164548 | 73 | 0 | 0.0 | 1.0 | 0.00 | 0.01 | 0.01 | 70 | 1014.3 |
| 20260508164035 | 73 | 0 | 0.0 | 2.0 | 0.00 | 0.01 | 0.01 | 73 | 1014.4 |
| 20260508163538 | 72 | 0 | 0.0 | 2.0 | 0.00 | 0.01 | 0.01 | 73 | 1014.5 |
| 20260508163103 | 71 | 0 | 0.0 | 2.0 | 0.00 | 0.01 | 0.01 | 75 | 1014.7 |
| 20260508162535 | 70 | 0 | 0.0 | 2.0 | 0.00 | 0.01 | 0.01 | 76 | 1014.7 |
| 20260508162035 | 69 | 0 | 0.0 | 0.0 | 0.00 | 0.01 | 0.01 | 79 | 1014.8 |
| 20260508161554 | 68 | 0 | 0.0 | 1.0 | 0.00 | 0.01 | 0.01 | 81 | 1014.9 |
| 20260508161035 | 68 | 0 | 0.0 | 1.0 | 0.00 | 0.01 | 0.01 | 82 | 1015.0 |
| 20260508160534 | 67 | 0 | 0.0 | 2.0 | 0.00 | 0.01 | 0.01 | 82 | 1015.0 |
| 20260508160051 | 67 | 0 | 0.0 | 2.0 | 0.00 | 0.01 | 0.01 | 83 | 1015.1 |
| 20260508155534 | 67 | 0 | 0.0 | 2.0 | 0.00 | 0.01 | 0.01 | 84 | 1015.2 |
| 20260508155032 | 67 | 0 | 0.0 | 3.0 | 0.00 | 0.01 | 0.01 | 85 | 1015.2 |
| 20260508154547 | 66 | 0 | 0.0 | 3.0 | 0.00 | 0.01 | 0.01 | 84 | 1015.3 |
| 20260508154034 | 67 | 0 | 0.0 | 0.0 | 0.00 | 0.01 | 0.01 | 85 | 1015.4 |
| 20260508153531 | 66 | 0 | 0.0 | 0.0 | 0.00 | 0.01 | 0.01 | 86 | 1015.4 |
| 20260508153101 | 65 | 0 | 0.0 | 1.0 | 0.00 | 0.01 | 0.01 | 86 | 1015.5 |
| 20260508152535 | 66 | 0 | 0.0 | 1.0 | 0.00 | 0.01 | 0.01 | 85 | 1015.5 |
| 20260508152035 | 66 | 0 | 0.0 | 1.0 | 0.00 | 0.01 | 0.01 | 85 | 1015.4 |
| 20260508151548 | 65 | 0 | 0.0 | 0.0 | 0.00 | 0.01 | 0.01 | 84 | 1015.5 |
| 20260508151038 | 66 | 0 | 0.0 | 1.0 | 0.00 | 0.01 | 0.01 | 83 | 1015.5 |
| 20260508150534 | 66 | 0 | 0.0 | 1.0 | 0.00 | 0.01 | 0.01 | 81 | 1015.4 |
| 20260508150046 | 66 | 0 | 0.0 | 1.0 | 0.00 | 0.01 | 0.01 | 80 | 1015.5 |
| 20260508145536 | 66 | 0 | 0.0 | 1.0 | 0.00 | 0.01 | 0.01 | 80 | 1016.0 |
| 20260508145034 | 67 | 0 | 0.0 | 0.0 | 0.00 | 0.01 | 0.01 | 79 | 1015.7 |
| 20260508144550 | 67 | 0 | 0.0 | 0.0 | 0.00 | 0.01 | 0.01 | 79 | 1015.6 |
| 20260508144035 | 67 | 0 | 0.0 | 0.0 | 0.00 | 0.01 | 0.01 | 81 | 1015.6 |
| 20260508143535 | 66 | 0 | 0.0 | 0.0 | 0.00 | 0.01 | 0.01 | 83 | 1015.6 |
| 20260508143103 | 66 | 0 | 0.0 | 0.0 | 0.00 | 0.01 | 0.01 | 85 | 1015.7 |
| 20260508142534 | 65 | 0 | 0.0 | 0.0 | 0.00 | 0.01 | 0.01 | 85 | 1015.6 |
| 20260508142031 | 64 | 0 | 0.0 | 0.0 | 0.00 | 0.01 | 0.01 | 86 | 1015.9 |
| 20260508141556 | 64 | 0 | 0.0 | 0.0 | 0.00 | 0.01 | 0.01 | 87 | 1015.9 |
| 20260508141035 | 64 | 0 | 0.0 | 0.0 | 0.00 | 0.01 | 0.01 | 88 | 1016.1 |
| 20260508140534 | 64 | 0 | 0.0 | 0.0 | 0.00 | 0.01 | 0.01 | 88 | 1016.2 |
| 20260508140046 | 64 | 0 | 0.0 | 0.0 | 0.00 | 0.01 | 0.01 | 89 | 1016.0 |
| 20260508135535 | 63 | 0 | 0.0 | 0.0 | 0.00 | 0.01 | 0.01 | 89 | 1015.7 |
| 20260508135035 | 63 | 0 | 0.0 | 0.0 | 0.00 | 0.01 | 0.01 | 89 | 1015.7 |
| 20260508134545 | 63 | 0 | 0.0 | 0.0 | 0.00 | 0.01 | 0.01 | 90 | 1015.8 |
| 20260508134034 | 63 | 0 | 0.0 | 0.0 | 0.00 | 0.01 | 0.01 | 91 | 1015.7 |
| 20260508133536 | 62 | 0 | 0.0 | 0.0 | 0.00 | 0.01 | 0.01 | 90 | 1015.7 |
| 20260508133051 | 62 | 0 | 0.0 | 0.0 | 0.00 | 0.01 | 0.01 | 90 | 1015.7 |
| 20260508132534 | 62 | 0 | 0.0 | 0.0 | 0.00 | 0.01 | 0.01 | 90 | 1015.7 |
| 20260508132034 | 62 | 0 | 0.0 | 0.0 | 0.00 | 0.01 | 0.01 | 91 | 1015.9 |
| 20260508131542 | 62 | 0 | 0.0 | 0.0 | 0.00 | 0.01 | 0.01 | 91 | 1015.7 |
| 20260508131034 | 62 | 0 | 0.0 | 0.0 | 0.00 | 0.01 | 0.01 | 91 | 1015.7 |
| 20260508130535 | 62 | 0 | 0.0 | 0.0 | 0.00 | 0.01 | 0.01 | 91 | 1015.9 |
| 20260508130047 | 62 | 0 | 0.0 | 0.0 | 0.00 | 0.01 | 0.01 | 91 | 1015.9 |
| 20260508125532 | 62 | 0 | 0.0 | 0.0 | 0.00 | 0.01 | 0.01 | 91 | 1015.7 |
| 20260508125034 | 62 | 0 | 0.0 | 0.0 | 0.00 | 0.01 | 0.01 | 91 | 1015.7 |
| 20260508124543 | 61 | 0 | 0.0 | 0.0 | 0.00 | 0.01 | 0.01 | 91 | 1015.8 |